Gastonia, NC

12:38 AM EST on November 19, 2017 (GMT -0500)
Gastonia Municipal

Weather History for KAKH - September, 2013

Change the Weather History Date:

Sunday, September 1, 2013

  Actual Average (KCLT) Record (KCLT)
Temperature  
Mean Temperature 76 °F -  
Max Temperature 88 °F 85 °F 99 °F (1957)
Min Temperature 66 °F 66 °F 51 °F (1999)
Cooling Degree Days 12    
Growing Degree Days 26 (Base 50)    
Moisture  
Dew Point 70 °F    
Average Humidity 89    
Maximum Humidity 100    
Minimum Humidity 63    
Precipitation  
Precipitation 0.13 in - - ()
Sea Level Pressure  
Sea Level Pressure 29.89 in    
Wind  
Wind Speed 2 mph (SW)    
Max Wind Speed 10 mph    
Max Gust Speed 20 mph    
Visibility 5 miles    
Events Rain , Thunderstorm    
Averages and records for this station are not official NWS values.
T = Trace of Precipitation, MM = Missing Value Source: NWS Daily Summary

Daily Weather History Graph

Daily Weather History Graph

Search for Another Location

Airport or City:

Trip Planner

Search our weather history database for the weather conditions in past years. The results will help you decide how hot, cold, wet, or windy it might be!

Date:

Astronomy

Sep. 01, 2013 Rise Set
Actual Time 6:57 AM EDT 7:51 PM EDT
Civil Twilight 6:31 AM EDT 8:16 PM EDT
Nautical Twilight 6:00 AM EDT 8:47 PM EDT
Astronomical Twilight 5:29 AM EDT 9:19 PM EDT
Moon 3:23 AM EDT (9/1) 5:23 PM EDT (9/1)
Length of Visible Light 13h 45m
Length of Day
12h 53m
Waning Crescent, 14% of the Moon is Illuminated
Sep 1
Waning Crescent
Sep 5
New
Sep 12
First Quarter
Sep 19
Full
Sep 26
Last Quarter

Hourly Weather History & Observations

Time (EDT) Temp. Heat Index Dew Point Humidity Pressure Visibility Wind Dir Wind Speed Gust Speed Precip Events Conditions
12:44 AM 68.0 °F - 68.0 °F 100% 29.94 in 1.8 mi Calm Calm - N/A   Clear
12:54 AM 68.0 °F - 66.9 °F 96% 29.92 in 1.2 mi Calm Calm - N/A   Clear
1:00 AM 68.0 °F - 66.2 °F 94% 29.93 in 3.0 mi Calm Calm - N/A   Partly Cloudy
1:27 AM 68.0 °F - 68.0 °F 100% 29.93 in 2.0 mi Calm Calm - N/A   Clear
1:37 AM 66.2 °F - 66.2 °F 100% 29.93 in 6.0 mi Calm Calm - N/A   Clear
1:54 AM 68.0 °F - 66.9 °F 96% 29.91 in 5.0 mi Calm Calm - N/A   Clear
2:08 AM 66.2 °F - 66.2 °F 100% 29.92 in 1.8 mi Calm Calm - N/A   Clear
2:17 AM 68.0 °F - 66.2 °F 94% 29.92 in 3.0 mi Calm Calm - N/A   Clear
2:39 AM 68.0 °F - 66.2 °F 94% 29.91 in 2.0 mi Calm Calm - N/A   Clear
2:54 AM 66.9 °F - 66.9 °F 100% 29.89 in 3.0 mi Calm Calm - N/A   Clear
3:54 AM 68.0 °F - 66.9 °F 96% 29.88 in 7.0 mi Calm Calm - N/A   Clear
4:54 AM 66.9 °F - 66.0 °F 97% 29.89 in 5.0 mi Calm Calm - N/A   Clear
5:54 AM 66.9 °F - 66.9 °F 100% 29.90 in 7.0 mi Calm Calm - N/A   Partly Cloudy
6:44 AM 66.2 °F - 66.2 °F 100% 29.91 in 1.8 mi Calm Calm - N/A   Clear
6:54 AM 66.9 °F - 66.0 °F 97% 29.90 in 2.5 mi Calm Calm - N/A   Clear
7:06 AM 66.2 °F - 66.2 °F 100% 29.91 in 1.2 mi South 3.5 mph - N/A   Clear
7:14 AM 66.2 °F - 66.2 °F 100% 29.92 in 3.0 mi Calm Calm - N/A   Clear
7:54 AM 69.1 °F - 68.0 °F 96% 29.91 in 5.0 mi Calm Calm - N/A   Clear
8:54 AM 72.0 °F - 70.0 °F 93% 29.92 in 8.0 mi Calm Calm - N/A   Clear
9:54 AM 75.9 °F - 72.0 °F 87% 29.93 in 10.0 mi SSW 5.8 mph - N/A   Clear
10:54 AM 80.1 °F 84.2 °F 73.0 °F 79% 29.92 in 10.0 mi SSW 5.8 mph - N/A   Clear
11:54 AM 82.9 °F 89.4 °F 73.9 °F 74% 29.91 in 8.0 mi SSW 9.2 mph - N/A   Partly Cloudy
12:54 PM 84.9 °F 92.1 °F 73.9 °F 69% 29.89 in 7.0 mi SW 10.4 mph 19.6 mph N/A   Scattered Clouds
1:13 PM 84.2 °F 92.3 °F 75.2 °F 74% 29.91 in 7.0 mi Variable 5.8 mph - N/A   Mostly Cloudy
1:26 PM 87.8 °F 97.6 °F 75.2 °F 66% 29.90 in 7.0 mi SW 8.1 mph - N/A   Scattered Clouds
1:54 PM 86.0 °F 95.1 °F 75.0 °F 70% 29.87 in 7.0 mi SSW 9.2 mph 17.3 mph N/A   Partly Cloudy
2:54 PM 87.1 °F 94.5 °F 73.0 °F 63% 29.85 in 9.0 mi South 9.2 mph 16.1 mph N/A   Scattered Clouds
3:54 PM 87.1 °F 94.5 °F 73.0 °F 63% 29.82 in 10.0 mi SW 10.4 mph 16.1 mph N/A   Partly Cloudy
4:54 PM 87.1 °F 94.5 °F 73.0 °F 63% 29.82 in 10.0 mi SW 8.1 mph 18.4 mph N/A   Clear
5:51 PM 84.2 °F 90.9 °F 73.4 °F 70% 29.85 in 10.0 mi Variable 3.5 mph - N/A Thunderstorm Partly Cloudy
5:54 PM 84.9 °F 91.4 °F 73.0 °F 67% 29.83 in 10.0 mi West 3.5 mph - N/A Thunderstorm Partly Cloudy
6:54 PM 73.0 °F - 70.0 °F 90% 29.86 in 10.0 mi Calm Calm - 0.01 in Thunderstorm Scattered Clouds
7:34 PM 73.4 °F - 69.8 °F 88% 29.89 in 1.8 mi Variable 4.6 mph - 0.03 in Rain , Thunderstorm Heavy Rain
7:49 PM 71.6 °F - 69.8 °F 94% 29.87 in 2.5 mi North 3.5 mph - 0.12 in Rain Light Rain
7:54 PM 72.0 °F - 70.0 °F 93% 29.86 in 7.0 mi North 4.6 mph - 0.12 in Rain Light Rain
8:54 PM 71.1 °F - 70.0 °F 96% 29.87 in 7.0 mi SSW 3.5 mph - 0.00 in   Overcast
9:54 PM 71.1 °F - 70.0 °F 96% 29.87 in 6.0 mi Calm Calm - N/A   Clear
10:50 PM 69.8 °F - 69.8 °F 100% 29.90 in 2.0 mi Calm Calm - N/A   Clear
10:54 PM 70.0 °F - 70.0 °F 100% 29.88 in 2.5 mi Calm Calm - N/A   Clear
11:06 PM 69.8 °F - 69.8 °F 100% 29.90 in 4.0 mi Calm Calm - N/A   Clear
11:54 PM 70.0 °F - 69.1 °F 97% 29.88 in 4.0 mi Calm Calm - N/A   Clear